Lapse_Rate
7.0 7.4 7.4 7.3 7.7 7.6 7.9 8.1 7.9 7.9 7.8 7.6 7.6 7.4 7.5 8.4 8.3 7.7 7.4 7.6 7.9 8.1
6.4 6.4 6.5 6.1 6.3 7.0 7.1 7.7 8.0 7.6 7.6 7.3 8.2 7.9 7.3 6.6 6.4 6.6 7.0 6.7 7.1 7.8
5.6 5.7 5.6 5.5 5.8 6.6 7.1 7.4 7.3 6.9 6.3 6.7 6.4 5.8 5.5 5.7 5.5 5.3 5.4 5.7 5.9 6.5
5.6 5.4 5.4 6.0 6.9 7.5 7.3 8.3 6.6 5.8 5.8 5.7 5.6 5.7 5.9 5.8 5.9 6.0 6.3 6.1 6.0 6.1
5.4 5.2 6.1 7.1 7.2 6.5 6.4 6.0 6.6 6.5 6.2 6.1 6.3 6.5 6.5 6.6 6.5 6.6 7.1 6.8 6.4 6.1
5.3 6.0 6.8 6.8 5.8 5.7 5.8 6.2 6.1 6.5 6.4 6.3 6.6 6.6 6.6 6.5 6.8 6.9 6.8 6.8 6.6 6.2
6.0 6.7 6.2 6.4 6.3 6.0 5.8 6.3 6.5 6.5 6.2 6.1 6.1 6.2 6.3 6.8 6.7 6.7 6.5 6.6 6.6 6.3
6.9 7.1 6.6 6.7 6.4 5.8 6.3 6.4 6.3 6.4 6.3 6.1 5.9 5.9 5.9 6.4 6.7 6.7 6.8 6.8 7.0 7.1
6.9 7.0 6.7 6.5 6.2 6.4 6.8 6.5 6.1 6.2 5.7 5.7 5.5 5.8 6.2 6.1 6.3 6.6 6.9 6.8 7.2 7.4
7.7 6.3 6.2 6.1 6.4 6.7 6.3 5.8 5.9 5.4 5.2 5.2 5.5 6.1 6.4 6.5 6.4 6.8 6.9 6.7 7.4 8.3
6.4 6.4 5.8 6.2 6.4 6.1 5.7 5.2 5.3 5.6 5.8 5.6 5.6 6.2 6.4 6.5 6.7 6.8 6.8 7.1 6.8 7.1
5.9 6.3 5.8 5.9 6.0 5.2 4.6 5.0 5.6 6.0 6.7 6.4 5.9 6.1 6.6 6.8 7.4 7.4 7.1 7.2 6.9 7.4
4.9 5.6 5.6 5.1 4.8 4.2 4.3 5.1 6.0 6.6 6.7 6.7 6.3 6.7 7.0 7.9 8.4 7.6 7.4 7.9 7.9 7.3
4.0 4.7 4.8 4.6 3.9 3.6 4.3 5.4 6.1 6.9 6.9 7.3 6.9 7.5 7.9 8.2 8.1 7.5 7.6 7.9 7.9 8.1
Wind_Speed
14 11 12 14 13 12 11 12 14 13 13 15 13 12 12 9 12 14 13 16 13 10
14 16 15 18 15 12 13 11 12 11 11 12 12 12 12 9 12 13 13 11 13 11
15 15 15 14 15 15 13 13 12 12 13 13 9 7 9 9 7 8 6 6 10 11
15 15 15 14 14 14 14 12 11 9 6 5 7 8 8 7 8 10 10 12 13 15
15 16 15 15 15 14 12 11 7 7 7 7 8 8 9 10 9 12 12 9 13 12
16 16 16 16 14 13 12 10 9 8 8 8 8 8 8 9 10 11 10 12 13 13
16 16 15 14 13 12 11 11 11 10 9 8 7 6 6 8 10 10 10 10 10 13
15 14 15 14 13 12 12 11 11 10 8 7 5 4 6 9 11 12 12 12 12 11
14 16 14 13 12 12 12 12 11 11 8 7 3 4 11 11 11 12 13 12 12 14
16 16 15 12 14 14 13 13 13 10 9 8 7 8 14 17 11 12 12 13 12 13
18 16 14 13 14 14 11 11 10 11 10 9 8 16 19 20 13 13 13 13 11 12
17 15 14 15 15 12 11 11 9 9 10 12 12 22 22 17 14 15 14 11 14 13
15 14 15 15 13 10 9 9 9 11 11 18 15 22 22 17 11 14 11 14 15 18
14 14 14 13 11 11 10 10 10 13 12 15 16 17 21 19 11 10 10 11 10 10
Wind_Direction
298 295 292 287 286 280 278 276 272 265 260 258 249 235 224 232 237 228 215 201 215 215
308 303 300 301 297 294 290 287 282 273 262 250 243 233 233 235 227 222 209 196 199 202
314 314 314 311 308 306 304 300 292 290 275 253 227 226 233 225 193 192 194 191 195 203
320 321 323 322 321 316 312 302 309 294 269 254 236 228 230 208 204 208 214 210 200 189
327 330 330 333 332 325 312 309 293 290 278 257 245 237 225 218 209 203 201 188 179 171
335 340 339 338 329 323 315 308 307 293 281 277 261 245 229 220 197 194 183 179 173 164
344 344 341 334 327 322 319 319 317 313 296 284 270 246 220 198 175 168 162 156 150 157
347 350 338 333 334 326 331 329 325 314 309 298 261 226 185 169 159 157 153 152 157 147
355 351 342 340 336 340 348 341 336 335 325 313 277 239 165 148 148 149 151 147 146 152
5 350 350 343 353 359 353 348 350 347 358 21 39 113 137 126 134 138 135 138 144 153
4 353 351 357 4 4 357 356 356 12 35 43 63 97 108 111 114 117 121 129 135 143
360 357 0 8 7 2 358 1 16 28 46 51 71 93 104 109 113 114 115 117 111 123
357 2 8 9 6 360 2 10 25 42 56 59 77 91 97 103 108 115 112 119 115 120
5 9 11 11 11 8 9 17 35 51 70 69 71 83 93 99 98 108 112 116 120 123